GIA3604 OEMA-WIEE

Flight info

Callsign GIA3604
Flight time N/A
Altitude 37000
Route MEDR1J MEDRO M872 BDB Y214 RAPMA DCT ULONO DCT DAPOL L692 GISKA N569 LOTAV M300 VASTU P895 BIKOK N640 KAT P570 NIXUL DCT ELDEL
Aircraft B77W/H-SDE1E2E3FGHIJ2J3J4J5M1RWXY/LB1D1

Departure

Time 2026-04-28 17:11
Airport Prince Mohammad Bin Abdulaziz Airport (OEMA)

Arrival

Time N/A
Airport Minangkabau International Airport (WIEE)
Time Latitude Longitude Altitude Speed Heading
2026-04-28 16:48 24.55759 39.71210 2165 ft 0 kts 79°
2026-04-28 17:00 24.55757 39.71198 2165 ft 3 kts 75°
2026-04-28 17:00 24.55751 39.71178 2165 ft 3 kts 63°
2026-04-28 17:00 24.55742 39.71160 2165 ft 3 kts 48°
2026-04-28 17:01 24.55734 39.71150 2165 ft 3 kts 37°
2026-04-28 17:01 24.55713 39.71137 2165 ft 3 kts 11°
2026-04-28 17:01 24.55695 39.71134 2165 ft 3 kts 355°
2026-04-28 17:01 24.55681 39.71136 2165 ft 1 kts 349°
2026-04-28 17:02 24.55680 39.71136 2165 ft 0 kts 349°
2026-04-28 17:05 24.55774 39.71117 2165 ft 15 kts 349°
2026-04-28 17:05 24.55883 39.71092 2165 ft 11 kts 348°
2026-04-28 17:05 24.55980 39.71070 2165 ft 10 kts 348°
2026-04-28 17:06 24.56004 39.70928 2165 ft 9 kts 259°
2026-04-28 17:06 24.56014 39.70883 2165 ft 7 kts 319°
2026-04-28 17:06 24.56202 39.70831 2165 ft 20 kts 348°
2026-04-28 17:07 24.56350 39.70800 2165 ft 24 kts 350°
2026-04-28 17:07 24.56523 39.70765 2165 ft 26 kts 348°
2026-04-28 17:07 24.56696 39.70727 2165 ft 23 kts 349°
2026-04-28 17:07 24.56847 39.70694 2165 ft 22 kts 348°
2026-04-28 17:08 24.56992 39.70665 2165 ft 21 kts 349°
2026-04-28 17:08 24.57131 39.70636 2165 ft 20 kts 348°
2026-04-28 17:08 24.57263 39.70608 2165 ft 19 kts 349°
2026-04-28 17:08 24.57356 39.70588 2165 ft 19 kts 349°
2026-04-28 17:09 24.57491 39.70560 2165 ft 21 kts 349°
2026-04-28 17:09 24.57616 39.70535 2165 ft 8 kts 350°
2026-04-28 17:09 24.57655 39.70499 2165 ft 8 kts 290°
2026-04-28 17:09 24.57654 39.70438 2165 ft 8 kts 262°
2026-04-28 17:10 24.57642 39.70372 2165 ft 9 kts 250°
2026-04-28 17:10 24.57592 39.70349 2165 ft 7 kts 173°
2026-04-28 17:10 24.57573 39.70352 2165 ft 9 kts 171°
2026-04-28 17:10 24.57329 39.70402 2165 ft 74 kts 169°
2026-04-28 17:11 24.56553 39.70567 2165 ft 151 kts 169°
2026-04-28 17:11 24.55332 39.70820 2280 ft 198 kts 171°
2026-04-28 17:11 24.53941 39.71101 3014 ft 204 kts 172°
2026-04-28 17:11 24.52494 39.71441 3993 ft 208 kts 171°
2026-04-28 17:12 24.51056 39.71779 4646 ft 221 kts 172°
2026-04-28 17:12 24.49471 39.72122 5054 ft 244 kts 172°
2026-04-28 17:12 24.47736 39.72484 5577 ft 262 kts 172°
2026-04-28 17:12 24.45906 39.72864 6324 ft 272 kts 172°
2026-04-28 17:13 24.44036 39.73274 7270 ft 275 kts 169°
2026-04-28 17:13 24.42256 39.74184 8082 ft 289 kts 146°
2026-04-28 17:13 24.40962 39.75912 8944 ft 301 kts 121°
2026-04-28 17:13 24.40373 39.78135 9784 ft 310 kts 101°
2026-04-28 17:14 24.40326 39.80537 10483 ft 322 kts 89°
2026-04-28 17:14 24.40492 39.83016 10952 ft 340 kts 88°
2026-04-28 17:14 24.40673 39.85681 11419 ft 359 kts 88°
2026-04-28 17:14 24.40865 39.88340 11825 ft 378 kts 88°
2026-04-28 17:15 24.41090 39.91475 12422 ft 394 kts 88°
2026-04-28 17:15 24.41306 39.94522 13068 ft 406 kts 88°
2026-04-28 17:15 24.41525 39.97643 13789 ft 415 kts 88°
2026-04-28 17:15 24.41745 40.00793 14537 ft 421 kts 88°
2026-04-28 17:16 24.41973 40.04070 15254 ft 429 kts 88°
2026-04-28 17:16 24.42200 40.07357 15954 ft 436 kts 88°
2026-04-28 17:16 24.42433 40.10744 16658 ft 442 kts 88°
2026-04-28 17:16 24.42666 40.14132 17331 ft 448 kts 88°
2026-04-28 17:17 24.42920 40.17843 18037 ft 455 kts 88°
2026-04-28 17:17 24.43173 40.21558 18715 ft 461 kts 88°
2026-04-28 17:17 24.43411 40.25053 19301 ft 468 kts 87°
2026-04-28 17:17 24.43668 40.28694 19806 ft 476 kts 87°
2026-04-28 17:18 24.43844 40.31153 20157 ft 481 kts 87°
2026-04-28 17:18 24.44096 40.34850 20672 ft 488 kts 87°
2026-04-28 17:18 24.44355 40.38744 21192 ft 496 kts 87°
2026-04-28 17:18 24.44605 40.42548 21684 ft 503 kts 87°
2026-04-28 17:19 24.44858 40.46403 22180 ft 510 kts 87°
2026-04-28 17:19 24.45114 40.50319 22644 ft 517 kts 87°
2026-04-28 17:19 24.45387 40.54501 23127 ft 524 kts 87°
2026-04-28 17:19 24.45641 40.58944 23635 ft 530 kts 89°
2026-04-28 17:20 24.45608 40.62962 24048 ft 536 kts 94°
2026-04-28 17:20 24.45447 40.65725 24332 ft 540 kts 96°
2026-04-28 17:20 24.44932 40.71180 24993 ft 544 kts 99°
2026-04-28 17:20 24.44485 40.75162 25487 ft 548 kts 99°
2026-04-28 17:21 24.44009 40.79595 26003 ft 551 kts 99°
2026-04-28 17:21 24.43567 40.83798 26459 ft 555 kts 99°
2026-04-28 17:21 24.43125 40.88020 26931 ft 557 kts 99°
2026-04-28 17:22 24.42235 40.96535 27675 ft 565 kts 99°
2026-04-28 17:22 24.41787 41.00822 28105 ft 566 kts 99°
2026-04-28 17:22 24.41338 41.05118 28620 ft 565 kts 99°
2026-04-28 17:23 24.40425 41.13796 29196 ft 572 kts 99°
2026-04-28 17:23 24.39966 41.18139 29496 ft 574 kts 100°
2026-04-28 17:23 24.39508 41.22447 29763 ft 577 kts 100°
2026-04-28 17:23 24.39212 41.25229 29918 ft 578 kts 100°
2026-04-28 17:24 24.38563 41.31310 30525 ft 575 kts 100°
2026-04-28 17:24 24.38097 41.35671 30910 ft 575 kts 100°
2026-04-28 17:24 24.37630 41.40024 31204 ft 576 kts 100°
2026-04-28 17:24 24.37161 41.44393 31588 ft 574 kts 100°
2026-04-28 17:25 24.36724 41.48672 32074 ft 570 kts 99°
2026-04-28 17:25 24.35833 41.57281 33112 ft 561 kts 100°
2026-04-28 17:25 24.35371 41.61531 33469 ft 560 kts 100°
2026-04-28 17:26 24.35066 41.64335 33675 ft 560 kts 100°
2026-04-28 17:26 24.34603 41.68569 34148 ft 556 kts 100°
2026-04-28 17:26 24.34181 41.72424 34556 ft 553 kts 100°
2026-04-28 17:26 24.33677 41.77017 34993 ft 551 kts 99°
2026-04-28 17:27 24.33176 41.81330 35415 ft 547 kts 102°
2026-04-28 17:27 24.32453 41.85413 35791 ft 543 kts 106°
2026-04-28 17:27 24.31542 41.89302 36155 ft 539 kts 109°
2026-04-28 17:27 24.30445 41.93335 36556 ft 535 kts 111°
2026-04-28 17:28 24.29311 41.97261 36866 ft 535 kts 111°
2026-04-28 17:28 24.26124 42.08833 36915 ft 545 kts 109°
2026-04-28 17:29 24.23920 42.17104 36917 ft 549 kts 109°
2026-04-28 17:30 24.20737 42.29226 36919 ft 548 kts 109°
2026-04-28 17:30 24.17530 42.41307 36919 ft 548 kts 109°
2026-04-28 17:31 24.14311 42.53374 36921 ft 547 kts 109°
2026-04-28 17:32 24.11003 42.65809 36920 ft 547 kts 109°
2026-04-28 17:32 24.08845 42.73814 36923 ft 547 kts 109°
2026-04-28 17:33 24.06981 42.80715 36923 ft 547 kts 109°
2026-04-28 17:33 24.05191 42.87338 36923 ft 547 kts 109°
2026-04-28 17:34 24.02477 42.97351 36926 ft 546 kts 109°
2026-04-28 17:34 24.00309 43.05310 36925 ft 546 kts 109°
2026-04-28 17:35 23.98340 43.12524 36925 ft 546 kts 109°
2026-04-28 17:35 23.96075 43.20806 36927 ft 546 kts 109°
2026-04-28 17:36 23.93903 43.28810 36926 ft 545 kts 109°
2026-04-28 17:36 23.91670 43.37041 36927 ft 545 kts 109°
2026-04-28 17:37 23.89484 43.45030 36935 ft 544 kts 109°
2026-04-28 17:37 23.87264 43.53114 36934 ft 543 kts 109°
2026-04-28 17:38 23.85313 43.60272 36936 ft 544 kts 109°
2026-04-28 17:38 23.83118 43.68230 36936 ft 543 kts 110°
2026-04-28 17:39 23.80925 43.76131 36935 ft 543 kts 109°
2026-04-28 17:40 23.77698 43.88021 36938 ft 544 kts 105°
2026-04-28 17:40 23.76548 43.96235 36935 ft 546 kts 97°
2026-04-28 17:41 23.76066 44.04521 36935 ft 548 kts 95°
2026-04-28 17:41 23.75575 44.12798 36936 ft 545 kts 96°
2026-04-28 17:42 23.74960 44.21048 36936 ft 544 kts 97°
2026-04-28 17:42 23.74337 44.29341 36936 ft 545 kts 96°
2026-04-28 17:43 23.73727 44.37635 36937 ft 541 kts 97°
2026-04-28 17:43 23.73098 44.45856 36936 ft 541 kts 97°
2026-04-28 17:44 23.72471 44.54025 36937 ft 541 kts 97°
2026-04-28 17:44 23.71846 44.62279 36938 ft 541 kts 97°
2026-04-28 17:45 23.71192 44.70521 36937 ft 541 kts 98°
2026-04-28 17:45 23.70533 44.78763 36936 ft 541 kts 97°
2026-04-28 17:46 23.69899 44.86689 36936 ft 542 kts 97°
2026-04-28 17:46 23.69233 44.95219 36935 ft 543 kts 97°
2026-04-28 17:47 23.68566 45.03426 36924 ft 543 kts 97°
2026-04-28 17:47 23.67884 45.11734 36922 ft 543 kts 97°
2026-04-28 17:48 23.67322 45.18571 36922 ft 543 kts 97°
2026-04-28 17:48 23.66640 45.26830 36920 ft 544 kts 97°
2026-04-28 17:49 23.65982 45.35047 36920 ft 543 kts 97°
2026-04-28 17:49 23.65291 45.43320 36919 ft 543 kts 97°
2026-04-28 17:50 23.64590 45.51582 36917 ft 543 kts 97°
2026-04-28 17:50 23.63883 45.59907 36917 ft 543 kts 97°
2026-04-28 17:51 23.63184 45.68102 36917 ft 543 kts 97°
2026-04-28 17:51 23.62474 45.76310 36915 ft 543 kts 97°
2026-04-28 17:52 23.61757 45.84537 36914 ft 543 kts 98°
2026-04-28 17:52 23.60673 45.96894 36913 ft 543 kts 98°
2026-04-28 17:53 23.59975 46.05054 36912 ft 543 kts 97°
2026-04-28 17:53 23.59264 46.13311 36912 ft 543 kts 97°
2026-04-28 17:54 23.58551 46.21589 36912 ft 543 kts 97°
2026-04-28 17:54 23.57832 46.29711 36911 ft 543 kts 98°
2026-04-28 17:55 23.57084 46.37978 36910 ft 543 kts 98°
2026-04-28 17:55 23.56335 46.46221 36910 ft 543 kts 98°
2026-04-28 17:56 23.55594 46.54378 36910 ft 543 kts 98°
2026-04-28 17:56 23.54820 46.62788 36910 ft 543 kts 98°
2026-04-28 17:57 23.54060 46.70978 36909 ft 543 kts 98°
2026-04-28 17:57 23.53295 46.79173 36909 ft 543 kts 98°
2026-04-28 17:58 23.52524 46.87389 36909 ft 543 kts 98°
2026-04-28 17:58 23.51776 46.95617 36907 ft 543 kts 98°
2026-04-28 17:59 23.51021 47.03797 36906 ft 542 kts 98°
2026-04-28 17:59 23.50252 47.11976 36903 ft 542 kts 98°
2026-04-28 18:00 23.49490 47.20160 36894 ft 542 kts 98°
2026-04-28 18:00 23.48718 47.28325 36894 ft 541 kts 98°
2026-04-28 18:01 23.47929 47.36470 36892 ft 541 kts 98°
2026-04-28 18:01 23.47129 47.44683 36892 ft 541 kts 98°
2026-04-28 18:02 23.46459 47.51571 36892 ft 541 kts 98°
2026-04-28 18:02 23.45638 47.59943 36891 ft 541 kts 98°
2026-04-28 18:03 23.44830 47.68104 36890 ft 541 kts 98°
2026-04-28 18:03 23.44007 47.76369 36890 ft 541 kts 99°
2026-04-28 18:04 23.43194 47.84513 36887 ft 541 kts 99°
2026-04-28 18:04 23.42381 47.92786 36885 ft 542 kts 98°
2026-04-28 18:05 23.41719 47.99565 36886 ft 541 kts 98°
2026-04-28 18:05 23.40778 48.09155 36883 ft 542 kts 99°
2026-04-28 18:06 23.39935 48.17419 36882 ft 541 kts 99°
2026-04-28 18:06 23.39092 48.25637 36881 ft 541 kts 99°
2026-04-28 18:07 23.37917 48.33608 36878 ft 538 kts 108°
2026-04-28 18:07 23.34900 48.41075 36878 ft 527 kts 126°
2026-04-28 18:08 23.30699 48.47601 36876 ft 526 kts 129°
2026-04-28 18:08 23.26542 48.54135 36874 ft 525 kts 128°
2026-04-28 18:09 23.22552 48.60781 36873 ft 525 kts 127°
2026-04-28 18:09 23.18511 48.67640 36873 ft 526 kts 126°
2026-04-28 18:10 23.14579 48.74361 36872 ft 527 kts 126°
2026-04-28 18:10 23.11285 48.79962 36870 ft 527 kts 126°
2026-04-28 18:11 23.07315 48.86694 36871 ft 527 kts 126°
2026-04-28 18:11 23.03307 48.93478 36870 ft 526 kts 127°
2026-04-28 18:12 22.99346 49.00172 36866 ft 526 kts 127°
2026-04-28 18:12 22.95311 49.06983 36863 ft 525 kts 127°
2026-04-28 18:13 22.91357 49.13648 36867 ft 525 kts 127°
2026-04-28 18:13 22.87410 49.20292 36868 ft 527 kts 127°
2026-04-28 18:14 22.83257 49.27273 36830 ft 525 kts 127°
2026-04-28 18:14 22.79758 49.33148 36827 ft 522 kts 127°
2026-04-28 18:15 22.75523 49.41113 36827 ft 526 kts 117°
2026-04-28 18:15 22.73575 49.47595 36828 ft 531 kts 105°
2026-04-28 18:16 22.72151 49.55423 36824 ft 535 kts 103°
2026-04-28 18:16 22.70908 49.63539 36824 ft 536 kts 102°
2026-04-28 18:17 22.69783 49.71104 36821 ft 536 kts 102°
2026-04-28 18:17 22.68619 49.78903 36821 ft 536 kts 102°
2026-04-28 18:18 22.67425 49.86870 36819 ft 536 kts 102°
2026-04-28 18:18 22.66412 49.93619 36812 ft 535 kts 102°
2026-04-28 18:19 22.65627 49.98834 36794 ft 520 kts 103°
2026-04-28 18:19 22.65047 50.02671 36791 ft 513 kts 103°
2026-04-28 18:19 22.63891 50.10283 36775 ft 515 kts 103°
2026-04-28 18:20 22.62722 50.17991 36794 ft 520 kts 103°
2026-04-28 18:20 22.61540 50.25747 36791 ft 517 kts 103°
2026-04-28 18:21 22.60362 50.33436 36778 ft 521 kts 103°
2026-04-28 18:21 22.59168 50.41218 36797 ft 525 kts 103°
2026-04-28 18:22 22.57980 50.48945 36811 ft 514 kts 103°
2026-04-28 18:22 22.56790 50.56641 36785 ft 522 kts 103°
2026-04-28 18:23 22.55573 50.64501 36841 ft 526 kts 103°
2026-04-28 18:23 22.54351 50.72359 36802 ft 523 kts 103°
2026-04-28 18:24 22.53338 50.78849 36786 ft 529 kts 103°
2026-04-28 18:24 22.51868 50.88257 36810 ft 533 kts 103°
2026-04-28 18:25 22.50643 50.96047 36806 ft 522 kts 103°
2026-04-28 18:26 22.48821 51.07588 37205 ft 492 kts 102°
2026-04-28 18:26 22.48433 51.10048 37019 ft 489 kts 102°
2026-04-28 18:26 22.47676 51.14812 36880 ft 482 kts 101°
2026-04-28 18:27 22.46678 51.21116 36839 ft 480 kts 100°
2026-04-28 18:27 22.45538 51.28309 36823 ft 484 kts 102°
2026-04-28 18:28 22.44403 51.35390 36834 ft 487 kts 101°
2026-04-28 18:28 22.43215 51.42812 36838 ft 483 kts 101°
2026-04-28 18:29 22.42070 51.49979 36827 ft 487 kts 102°
2026-04-28 18:29 22.40888 51.57298 36836 ft 492 kts 102°
2026-04-28 18:30 22.39715 51.64544 36838 ft 486 kts 101°
2026-04-28 18:30 22.38535 51.71862 36829 ft 485 kts 102°
2026-04-28 18:31 22.37362 51.79071 36827 ft 488 kts 102°
2026-04-28 18:31 22.36179 51.86316 36838 ft 484 kts 101°
2026-04-28 18:32 22.35015 51.93461 36825 ft 484 kts 102°
2026-04-28 18:32 22.33824 52.00731 36828 ft 491 kts 102°
2026-04-28 18:33 22.32622 52.07989 36829 ft 488 kts 100°
2026-04-28 18:33 22.31431 52.15227 36825 ft 485 kts 99°
2026-04-28 18:34 22.30246 52.22415 36824 ft 485 kts 99°
2026-04-28 18:34 22.29198 52.28750 36825 ft 486 kts 99°
2026-04-28 18:35 22.28003 52.35942 36825 ft 486 kts 99°
2026-04-28 18:35 22.26792 52.43213 36824 ft 486 kts 99°
2026-04-28 18:36 22.25595 52.50376 36824 ft 486 kts 99°
2026-04-28 18:36 22.24377 52.57648 36824 ft 486 kts 99°
2026-04-28 18:37 22.23167 52.64847 36824 ft 486 kts 99°
2026-04-28 18:37 22.21976 52.71915 36823 ft 486 kts 99°
2026-04-28 18:38 22.20731 52.79282 36823 ft 486 kts 99°
2026-04-28 18:38 22.19516 52.86457 36823 ft 486 kts 99°
2026-04-28 18:39 22.18256 52.93870 36823 ft 486 kts 99°
2026-04-28 18:39 22.17034 53.01042 36822 ft 486 kts 99°
2026-04-28 18:40 22.16001 53.07093 36823 ft 486 kts 99°
2026-04-28 18:40 22.14690 53.14748 36822 ft 486 kts 99°
2026-04-28 18:41 22.13459 53.21915 36822 ft 486 kts 99°
2026-04-28 18:41 22.12159 53.29462 36821 ft 486 kts 99°
2026-04-28 18:42 22.10923 53.36623 36821 ft 486 kts 99°
2026-04-28 18:42 22.09883 53.42628 36821 ft 486 kts 99°
2026-04-28 18:43 22.08600 53.50024 36820 ft 486 kts 99°
2026-04-28 18:43 22.07355 53.57177 36820 ft 486 kts 99°
2026-04-28 18:44 22.06098 53.64386 36820 ft 485 kts 99°
2026-04-28 18:44 22.04190 53.75283 36820 ft 486 kts 99°
2026-04-28 18:45 22.02929 53.82466 36819 ft 486 kts 100°
2026-04-28 18:45 22.01668 53.89625 36819 ft 486 kts 100°
2026-04-28 18:46 22.00371 53.96971 36818 ft 486 kts 100°
2026-04-28 18:46 21.99113 54.04079 36818 ft 486 kts 100°
2026-04-28 18:47 21.97836 54.11275 36818 ft 486 kts 100°
2026-04-28 18:47 21.96617 54.18127 36816 ft 486 kts 100°
2026-04-28 18:48 21.95281 54.25619 36816 ft 486 kts 100°
2026-04-28 18:48 21.94003 54.32765 36816 ft 486 kts 100°
2026-04-28 18:49 21.93139 54.37583 36816 ft 486 kts 100°
2026-04-28 18:49 21.91586 54.46229 36815 ft 486 kts 100°
2026-04-28 18:50 21.90299 54.53374 36815 ft 486 kts 100°
2026-04-28 18:50 21.89009 54.60520 36814 ft 486 kts 100°
2026-04-28 18:51 21.87710 54.67701 36813 ft 486 kts 100°
2026-04-28 18:51 21.86414 54.74842 36812 ft 486 kts 100°
2026-04-28 18:52 21.85114 54.81992 36813 ft 486 kts 100°
2026-04-28 18:52 21.83672 54.89906 36811 ft 486 kts 101°
2026-04-28 18:53 21.82527 54.96175 36810 ft 486 kts 101°
2026-04-28 18:53 21.81176 55.03557 36810 ft 486 kts 101°
2026-04-28 18:54 21.79866 55.10705 36809 ft 486 kts 101°
2026-04-28 18:54 21.78529 55.17986 36807 ft 486 kts 101°
2026-04-28 18:55 21.77474 55.23759 36807 ft 486 kts 100°
2026-04-28 18:55 21.76039 55.32744 36805 ft 487 kts 100°
2026-04-28 18:56 21.74748 55.39899 36805 ft 487 kts 101°
2026-04-28 18:56 21.73462 55.47048 36804 ft 487 kts 100°
2026-04-28 18:57 21.72191 55.54209 36803 ft 487 kts 100°
2026-04-28 18:57 21.71234 55.61327 36802 ft 487 kts 94°
2026-04-28 18:58 21.71009 55.68615 36802 ft 487 kts 92°
2026-04-28 18:58 21.70632 55.75898 36802 ft 487 kts 94°
2026-04-28 18:59 21.70259 55.82042 36800 ft 487 kts 94°
2026-04-28 18:59 21.69825 55.89368 36798 ft 488 kts 94°
2026-04-28 19:00 21.69388 55.96647 36797 ft 488 kts 94°
2026-04-28 19:00 21.68935 56.04119 36795 ft 488 kts 94°
2026-04-28 19:01 21.68489 56.11402 36794 ft 488 kts 94°
2026-04-28 19:01 21.68050 56.18547 36794 ft 488 kts 94°
2026-04-28 19:02 21.67607 56.26177 36793 ft 488 kts 94°
2026-04-28 19:02 21.67170 56.33480 36791 ft 489 kts 94°
2026-04-28 19:03 21.66762 56.40144 36790 ft 489 kts 94°
2026-04-28 19:03 21.66288 56.47787 36790 ft 489 kts 94°
2026-04-28 19:04 21.65832 56.55079 36787 ft 489 kts 94°
2026-04-28 19:04 21.65363 56.62537 36786 ft 490 kts 94°
2026-04-28 19:05 21.64899 56.69845 36786 ft 490 kts 94°
2026-04-28 19:05 21.64422 56.77353 36782 ft 490 kts 94°
2026-04-28 19:06 21.64048 56.83428 36782 ft 490 kts 94°
2026-04-28 19:06 21.63484 56.92076 36782 ft 490 kts 94°
2026-04-28 19:07 21.62999 56.99393 36779 ft 491 kts 94°
2026-04-28 19:07 21.62527 57.06517 36778 ft 491 kts 94°
2026-04-28 19:08 21.62021 57.14124 36778 ft 491 kts 94°
2026-04-28 19:08 21.61526 57.21455 36774 ft 491 kts 94°
2026-04-28 19:09 21.61025 57.28831 36773 ft 492 kts 94°
2026-04-28 19:09 21.60619 57.34975 36774 ft 492 kts 94°
2026-04-28 19:10 21.60140 57.42305 36773 ft 492 kts 94°
2026-04-28 19:10 21.59629 57.49692 36770 ft 492 kts 94°
2026-04-28 19:11 21.59107 57.57183 36770 ft 492 kts 94°
2026-04-28 19:11 21.58586 57.64527 36767 ft 492 kts 96°
2026-04-28 19:12 21.57280 57.71932 36768 ft 492 kts 105°
2026-04-28 19:12 21.55274 57.78981 36768 ft 493 kts 108°
2026-04-28 19:13 21.53119 57.86069 36767 ft 493 kts 107°
2026-04-28 19:13 21.51087 57.93095 36765 ft 493 kts 107°
2026-04-28 19:14 21.49071 58.00181 36765 ft 493 kts 107°
2026-04-28 19:14 21.47091 58.07234 36765 ft 493 kts 107°
2026-04-28 19:15 21.45082 58.14380 36764 ft 493 kts 107°
2026-04-28 19:15 21.43425 58.20237 36762 ft 493 kts 107°
2026-04-28 19:16 21.41017 58.28719 36762 ft 494 kts 107°
2026-04-28 19:16 21.39017 58.35753 36762 ft 494 kts 107°
2026-04-28 19:17 21.37329 58.41674 36761 ft 494 kts 107°
2026-04-28 19:17 21.35328 58.48721 36761 ft 494 kts 107°
2026-04-28 19:18 21.33322 58.55769 36761 ft 494 kts 107°
2026-04-28 19:18 21.31287 58.62856 36760 ft 494 kts 107°
2026-04-28 19:19 21.29216 58.70050 36760 ft 494 kts 107°
2026-04-28 19:19 21.27064 58.77523 36761 ft 494 kts 107°
2026-04-28 19:20 21.25036 58.84553 36759 ft 494 kts 107°
2026-04-28 19:20 21.22984 58.91635 36759 ft 494 kts 107°
2026-04-28 19:21 21.20942 58.98670 36759 ft 494 kts 107°
2026-04-28 19:21 21.18857 59.05843 36759 ft 494 kts 107°
2026-04-28 19:22 21.17500 59.10507 36759 ft 494 kts 107°
2026-04-28 19:22 21.14769 59.19958 36759 ft 494 kts 107°
2026-04-28 19:23 21.12734 59.26986 36759 ft 494 kts 107°
2026-04-28 19:23 21.10997 59.32950 36759 ft 494 kts 107°
2026-04-28 19:24 21.08981 59.39907 36759 ft 494 kts 107°
2026-04-28 19:24 21.06904 59.47022 36759 ft 494 kts 107°
2026-04-28 19:25 21.04841 59.54041 36760 ft 494 kts 107°
2026-04-28 19:25 21.02737 59.61190 36760 ft 494 kts 107°
2026-04-28 19:26 21.00672 59.68202 36760 ft 494 kts 107°
2026-04-28 19:26 20.98599 59.75097 36760 ft 494 kts 108°
2026-04-28 19:27 20.96427 59.82183 36761 ft 494 kts 108°
2026-04-28 19:27 20.94260 59.89257 36761 ft 494 kts 108°
2026-04-28 19:28 20.92118 59.96249 36761 ft 494 kts 108°
2026-04-28 19:28 20.89934 60.03367 36757 ft 498 kts 107°
2026-04-28 19:29 20.88149 60.09258 36758 ft 503 kts 107°
2026-04-28 19:29 20.85636 60.17509 36757 ft 505 kts 107°
2026-04-28 19:30 20.83387 60.24844 36757 ft 504 kts 107°
2026-04-28 19:30 20.81201 60.31959 36757 ft 504 kts 107°
2026-04-28 19:31 20.79217 60.38402 36757 ft 504 kts 107°
2026-04-28 19:31 20.77012 60.45553 36758 ft 504 kts 107°
2026-04-28 19:32 20.74705 60.53021 36757 ft 504 kts 107°
2026-04-28 19:32 20.72533 60.60038 36757 ft 504 kts 107°
2026-04-28 19:33 20.70345 60.67154 36758 ft 504 kts 107°
2026-04-28 19:33 20.68140 60.74257 36758 ft 504 kts 107°
2026-04-28 19:34 20.65925 60.81359 36758 ft 504 kts 107°
2026-04-28 19:34 20.63707 60.88466 36758 ft 504 kts 107°
2026-04-28 19:35 20.61200 60.95552 36760 ft 505 kts 115°
2026-04-28 19:35 20.57710 61.02138 36758 ft 506 kts 121°
2026-04-28 19:36 20.53825 61.08424 36758 ft 507 kts 122°
2026-04-28 19:36 20.49790 61.14939 36758 ft 507 kts 122°
2026-04-28 19:37 20.46604 61.20190 36757 ft 507 kts 121°
2026-04-28 19:37 20.42123 61.27634 36758 ft 507 kts 121°
2026-04-28 19:38 20.38341 61.33973 36758 ft 507 kts 121°
2026-04-28 19:38 20.35200 61.39216 36758 ft 507 kts 121°
2026-04-28 19:39 20.31350 61.45628 36758 ft 507 kts 121°
2026-04-28 19:39 20.27540 61.51963 36758 ft 507 kts 121°
2026-04-28 19:40 20.23704 61.58334 36758 ft 507 kts 121°
2026-04-28 19:40 20.19927 61.64598 36758 ft 507 kts 121°
2026-04-28 19:41 20.16006 61.71095 36758 ft 507 kts 121°
2026-04-28 19:41 20.12203 61.77391 36758 ft 507 kts 121°
2026-04-28 19:42 20.08363 61.83739 36758 ft 507 kts 121°
2026-04-28 19:42 20.05264 61.88857 36758 ft 507 kts 121°
2026-04-28 19:43 20.00598 61.96556 36758 ft 507 kts 121°
2026-04-28 19:43 19.96722 62.02945 36757 ft 507 kts 121°
2026-04-28 19:44 19.92770 62.09450 36757 ft 507 kts 121°
2026-04-28 19:44 19.88943 62.15744 36757 ft 507 kts 122°
2026-04-28 19:45 19.85678 62.21107 36761 ft 506 kts 122°
2026-04-28 19:45 19.81896 62.27314 36757 ft 506 kts 122°
2026-04-28 19:46 19.77840 62.33963 36758 ft 507 kts 122°
2026-04-28 19:46 19.74186 62.39948 36763 ft 503 kts 122°
2026-04-28 19:47 19.70353 62.46218 36765 ft 501 kts 121°
2026-04-28 19:47 19.66529 62.52467 36773 ft 501 kts 122°
2026-04-28 19:48 19.62674 62.58761 36780 ft 495 kts 122°
2026-04-28 19:48 19.58929 62.64870 36781 ft 491 kts 122°
2026-04-28 19:49 19.55142 62.71038 36778 ft 491 kts 122°
2026-04-28 19:49 19.51419 62.77098 36778 ft 496 kts 122°
2026-04-28 19:50 19.45757 62.86304 36783 ft 492 kts 122°
2026-04-28 19:51 19.42025 62.92363 36784 ft 490 kts 122°
2026-04-28 19:51 19.38297 62.98409 36783 ft 491 kts 122°
2026-04-28 19:52 19.34551 63.04479 36783 ft 491 kts 122°
2026-04-28 19:52 19.30781 63.10582 36785 ft 491 kts 122°
2026-04-28 19:53 19.27017 63.16669 36785 ft 491 kts 122°
2026-04-28 19:53 19.23222 63.22800 36785 ft 491 kts 122°
2026-04-28 19:54 19.19453 63.28882 36785 ft 491 kts 122°
2026-04-28 19:54 19.15719 63.34925 36786 ft 491 kts 122°
2026-04-28 19:55 19.11972 63.40965 36787 ft 491 kts 122°
2026-04-28 19:55 19.08750 63.46142 36787 ft 491 kts 122°
2026-04-28 19:56 19.04838 63.52424 36787 ft 491 kts 122°
2026-04-28 19:56 19.01030 63.58532 36788 ft 491 kts 122°
2026-04-28 19:57 18.97201 63.64675 36788 ft 491 kts 122°
2026-04-28 19:57 18.93438 63.70694 36789 ft 491 kts 122°
2026-04-28 19:58 18.89543 63.76919 36789 ft 491 kts 122°
2026-04-28 19:58 18.85832 63.82845 36789 ft 491 kts 122°
2026-04-28 19:59 18.81987 63.88979 36789 ft 491 kts 123°
2026-04-28 19:59 18.78235 63.94996 36790 ft 491 kts 122°
2026-04-28 20:00 18.74446 64.01064 36790 ft 490 kts 122°
2026-04-28 20:00 18.71327 64.06045 36790 ft 490 kts 122°
2026-04-28 20:01 18.67514 64.12122 36790 ft 490 kts 122°
2026-04-28 20:01 18.63687 64.18216 36790 ft 490 kts 123°
2026-04-28 20:02 18.59898 64.24242 36792 ft 490 kts 123°
2026-04-28 20:02 18.56122 64.30241 36792 ft 490 kts 123°
2026-04-28 20:03 18.52340 64.36244 36792 ft 490 kts 123°
2026-04-28 20:03 18.48478 64.42368 36792 ft 490 kts 123°
2026-04-28 20:04 18.44674 64.48395 36793 ft 490 kts 123°
2026-04-28 20:04 18.40841 64.54461 36793 ft 490 kts 123°
2026-04-28 20:05 18.37082 64.60405 36793 ft 490 kts 123°
2026-04-28 20:05 18.33239 64.66476 36793 ft 490 kts 123°
2026-04-28 20:06 18.29480 64.72409 36794 ft 490 kts 123°
2026-04-28 20:06 18.25684 64.78394 36794 ft 490 kts 123°
2026-04-28 20:07 18.21897 64.84362 36794 ft 490 kts 123°
2026-04-28 20:07 18.18519 64.89678 36794 ft 490 kts 123°
2026-04-28 20:08 18.14623 64.95806 36794 ft 490 kts 123°
2026-04-28 20:08 18.10830 65.01765 36794 ft 490 kts 123°
2026-04-28 20:09 18.07035 65.07722 36795 ft 490 kts 123°
2026-04-28 20:09 18.03240 65.13675 36795 ft 490 kts 123°
2026-04-28 20:10 17.99445 65.19621 36795 ft 490 kts 123°
2026-04-28 20:10 17.95617 65.25614 36796 ft 490 kts 123°
2026-04-28 20:11 17.91794 65.31593 36796 ft 490 kts 123°
2026-04-28 20:11 17.87943 65.37611 36796 ft 490 kts 123°
2026-04-28 20:12 17.84085 65.43634 36797 ft 490 kts 123°
2026-04-28 20:12 17.80350 65.49460 36796 ft 490 kts 123°
2026-04-28 20:13 17.76483 65.55512 36796 ft 490 kts 123°
2026-04-28 20:13 17.72647 65.61481 36797 ft 490 kts 123°
2026-04-28 20:14 17.68780 65.67490 36798 ft 490 kts 123°
2026-04-28 20:14 17.64977 65.73393 36797 ft 490 kts 123°
2026-04-28 20:15 17.61047 65.79503 36797 ft 490 kts 122°
2026-04-28 20:15 17.57345 65.85490 36797 ft 490 kts 122°
2026-04-28 20:16 17.54249 65.90528 36798 ft 490 kts 122°
2026-04-28 20:16 17.50530 65.96555 36798 ft 490 kts 122°
2026-04-28 20:17 17.46732 66.02693 36798 ft 490 kts 122°
2026-04-28 20:17 17.43121 66.08523 36798 ft 490 kts 122°
2026-04-28 20:18 17.39375 66.14608 36798 ft 490 kts 122°
2026-04-28 20:18 17.35678 66.20593 36799 ft 489 kts 122°
2026-04-28 20:19 17.31914 66.26670 36798 ft 489 kts 122°
2026-04-28 20:19 17.28187 66.32678 36798 ft 489 kts 122°
2026-04-28 20:20 17.24277 66.38975 36799 ft 489 kts 122°
2026-04-28 20:20 17.20489 66.45069 36800 ft 489 kts 122°
2026-04-28 20:21 17.16792 66.51013 36800 ft 489 kts 122°
2026-04-28 20:21 17.13008 66.57090 36800 ft 489 kts 122°
2026-04-28 20:22 17.09294 66.63048 36800 ft 489 kts 122°
2026-04-28 20:22 17.06028 66.68286 36800 ft 489 kts 122°
2026-04-28 20:23 17.02356 66.74168 36800 ft 489 kts 122°
2026-04-28 20:23 16.98659 66.80085 36799 ft 489 kts 122°
2026-04-28 20:24 16.94822 66.86217 36800 ft 494 kts 121°
2026-04-28 20:24 16.91026 66.92286 36802 ft 495 kts 121°
2026-04-28 20:25 16.87331 66.98188 36798 ft 489 kts 122°
2026-04-28 20:25 16.83439 67.04389 36795 ft 500 kts 120°
2026-04-28 20:26 16.79578 67.10544 36810 ft 512 kts 121°
2026-04-28 20:26 16.75667 67.16771 36815 ft 518 kts 120°
2026-04-28 20:27 16.71686 67.23106 36809 ft 509 kts 120°
2026-04-28 20:27 16.67826 67.29244 36807 ft 512 kts 120°
2026-04-28 20:28 16.63831 67.35586 36883 ft 521 kts 121°
2026-04-28 20:28 16.59818 67.41954 36890 ft 529 kts 121°
2026-04-28 20:29 16.55748 67.48405 36891 ft 535 kts 121°
2026-04-28 20:29 16.51652 67.54891 36890 ft 536 kts 121°
2026-04-28 20:30 16.47530 67.61414 36890 ft 535 kts 121°
2026-04-28 20:30 16.43439 67.67892 36890 ft 534 kts 120°
2026-04-28 20:31 16.39351 67.74361 36890 ft 534 kts 121°
2026-04-28 20:31 16.35913 67.79780 36890 ft 535 kts 121°
2026-04-28 20:32 16.31732 67.86366 36890 ft 535 kts 121°
2026-04-28 20:32 16.27600 67.92868 36890 ft 535 kts 121°
2026-04-28 20:33 16.23323 67.99647 36890 ft 535 kts 120°
2026-04-28 20:33 16.19247 68.06117 36890 ft 535 kts 121°
2026-04-28 20:34 16.15139 68.12629 36890 ft 535 kts 121°
2026-04-28 20:34 16.11059 68.19091 36890 ft 535 kts 121°
2026-04-28 20:35 16.06951 68.25600 36890 ft 534 kts 120°
2026-04-28 20:35 16.02843 68.32136 36890 ft 535 kts 120°
2026-04-28 20:36 15.98777 68.38581 36890 ft 535 kts 121°
2026-04-28 20:36 15.94666 68.45083 36889 ft 535 kts 121°
2026-04-28 20:37 15.90458 68.51732 36889 ft 535 kts 121°
2026-04-28 20:37 15.86478 68.58014 36889 ft 535 kts 121°
2026-04-28 20:38 15.82328 68.64559 36889 ft 535 kts 121°
2026-04-28 20:38 15.78238 68.71005 36889 ft 535 kts 121°
2026-04-28 20:39 15.74110 68.77504 36889 ft 535 kts 121°
2026-04-28 20:39 15.70015 68.83945 36889 ft 535 kts 121°
2026-04-28 20:40 15.66639 68.89252 36890 ft 535 kts 121°
2026-04-28 20:40 15.61820 68.96819 36889 ft 535 kts 121°
2026-04-28 20:41 15.58406 69.02176 36889 ft 535 kts 121°
2026-04-28 20:41 15.54273 69.08656 36889 ft 535 kts 121°
2026-04-28 20:42 15.50247 69.14963 36889 ft 535 kts 121°
2026-04-28 20:42 15.46034 69.21557 36889 ft 535 kts 121°
2026-04-28 20:43 15.41900 69.28022 36889 ft 535 kts 121°
2026-04-28 20:43 15.37731 69.34536 36889 ft 535 kts 121°
2026-04-28 20:44 15.33621 69.40954 36889 ft 535 kts 121°
2026-04-28 20:44 15.29148 69.47934 36888 ft 535 kts 121°
2026-04-28 20:45 15.24954 69.54489 36888 ft 535 kts 121°
2026-04-28 20:45 15.21468 69.59913 36889 ft 535 kts 121°
2026-04-28 20:46 15.17259 69.66454 36888 ft 535 kts 121°
2026-04-28 20:46 15.13105 69.72908 36888 ft 535 kts 121°
2026-04-28 20:47 15.08981 69.79363 36888 ft 535 kts 121°
2026-04-28 20:47 15.04863 69.85850 36888 ft 535 kts 121°
2026-04-28 20:48 15.00654 69.92469 36888 ft 535 kts 121°
2026-04-28 20:48 14.96632 69.98790 36888 ft 535 kts 121°
2026-04-28 20:49 14.92514 70.05255 36888 ft 534 kts 121°
2026-04-28 20:49 14.88302 70.11902 36888 ft 535 kts 121°
2026-04-28 20:50 14.84218 70.18319 36888 ft 535 kts 121°
2026-04-28 20:50 14.80098 70.24784 36888 ft 535 kts 121°
2026-04-28 20:51 14.76695 70.30118 36888 ft 535 kts 121°
2026-04-28 20:51 14.71911 70.37610 36887 ft 535 kts 121°
2026-04-28 20:52 14.67811 70.44026 36887 ft 535 kts 121°
2026-04-28 20:52 14.63710 70.50438 36887 ft 535 kts 121°
2026-04-28 20:53 14.57560 70.60044 36888 ft 535 kts 121°
2026-04-28 20:53 14.53458 70.66445 36887 ft 535 kts 121°
2026-04-28 20:54 14.49334 70.72894 36887 ft 535 kts 121°
2026-04-28 20:54 14.45223 70.79294 36887 ft 535 kts 121°
2026-04-28 20:55 14.41113 70.85685 36887 ft 535 kts 121°
2026-04-28 20:55 14.37667 70.91042 36886 ft 535 kts 121°
2026-04-28 20:56 14.33536 70.97485 36887 ft 534 kts 120°
2026-04-28 20:56 14.29484 71.03904 36885 ft 534 kts 120°
2026-04-28 20:57 14.25401 71.10360 36884 ft 534 kts 120°
2026-04-28 20:57 14.21330 71.16787 36881 ft 534 kts 120°
2026-04-28 20:58 14.17231 71.23253 36880 ft 534 kts 120°
2026-04-28 20:58 14.13179 71.29669 36878 ft 534 kts 120°
2026-04-28 20:59 14.09115 71.36091 36878 ft 534 kts 120°
2026-04-28 20:59 14.05050 71.42502 36878 ft 534 kts 120°
2026-04-28 21:00 14.00981 71.48911 36877 ft 534 kts 120°
2026-04-28 21:00 13.96881 71.55364 36876 ft 534 kts 120°
2026-04-28 21:01 13.92645 71.62025 36877 ft 534 kts 121°
2026-04-28 21:01 13.88605 71.68373 36877 ft 534 kts 121°
2026-04-28 21:02 13.84412 71.74972 36874 ft 534 kts 120°
2026-04-28 21:02 13.80242 71.81518 36874 ft 534 kts 121°
2026-04-28 21:03 13.76134 71.87952 36875 ft 534 kts 121°
2026-04-28 21:03 13.72469 71.93688 36875 ft 534 kts 121°
2026-04-28 21:04 13.68146 72.00416 36871 ft 534 kts 122°
2026-04-28 21:04 13.63574 72.06527 36872 ft 535 kts 127°
2026-04-28 21:05 13.59519 72.11466 36872 ft 536 kts 128°
2026-04-28 21:05 13.54532 72.17617 36872 ft 537 kts 127°
2026-04-28 21:06 13.49784 72.23569 36868 ft 536 kts 127°
2026-04-28 21:06 13.44970 72.29640 36868 ft 536 kts 127°
2026-04-28 21:07 13.40275 72.35579 36869 ft 536 kts 127°
2026-04-28 21:07 13.35471 72.41644 36890 ft 535 kts 127°
2026-04-28 21:08 13.30796 72.47538 36918 ft 530 kts 127°
2026-04-28 21:08 13.26112 72.53440 36919 ft 529 kts 127°
2026-04-28 21:09 13.21450 72.59308 36922 ft 530 kts 127°
2026-04-28 21:09 13.16787 72.65175 36917 ft 531 kts 127°
2026-04-28 21:10 13.12119 72.71044 36907 ft 530 kts 127°
2026-04-28 21:10 13.07292 72.77108 36908 ft 530 kts 127°
2026-04-28 21:11 13.02598 72.83001 36910 ft 530 kts 127°
2026-04-28 21:11 12.97931 72.88856 36904 ft 530 kts 127°
2026-04-28 21:12 12.93236 72.94743 36894 ft 530 kts 127°
2026-04-28 21:12 12.88570 73.00589 36896 ft 530 kts 127°
2026-04-28 21:13 12.83908 73.06427 36898 ft 530 kts 127°
2026-04-28 21:13 12.80022 73.11290 36891 ft 530 kts 127°
2026-04-28 21:14 12.75416 73.17051 36882 ft 529 kts 127°
2026-04-28 21:14 12.70588 73.23085 36883 ft 529 kts 127°
2026-04-28 21:15 12.65922 73.28913 36884 ft 529 kts 127°
2026-04-28 21:15 12.61150 73.34871 36878 ft 529 kts 127°
2026-04-28 21:16 12.56573 73.40580 36869 ft 529 kts 127°
2026-04-28 21:16 12.51899 73.46407 36871 ft 529 kts 127°
2026-04-28 21:17 12.46852 73.52696 36869 ft 529 kts 127°
2026-04-28 21:17 12.42173 73.58521 36866 ft 529 kts 127°
2026-04-28 21:18 12.37469 73.64374 36861 ft 529 kts 127°
2026-04-28 21:18 12.32793 73.70189 36861 ft 529 kts 127°
2026-04-28 21:19 12.28810 73.75139 36859 ft 529 kts 127°
2026-04-28 21:19 12.23347 73.81924 36857 ft 529 kts 127°
2026-04-28 21:20 12.19393 73.86832 36854 ft 529 kts 127°
2026-04-28 21:20 12.14714 73.92637 36853 ft 529 kts 127°
2026-04-28 21:21 12.10099 73.98359 36852 ft 529 kts 127°
2026-04-28 21:21 12.05292 74.04315 36851 ft 529 kts 127°
2026-04-28 21:22 12.00633 74.10084 36850 ft 529 kts 127°
2026-04-28 21:22 11.95858 74.15993 36849 ft 529 kts 128°
2026-04-28 21:23 11.91147 74.21821 36849 ft 529 kts 128°
2026-04-28 21:23 11.86422 74.27662 36849 ft 529 kts 128°
2026-04-28 21:24 11.81888 74.33262 36849 ft 529 kts 128°
2026-04-28 21:24 11.77000 74.39297 36849 ft 529 kts 128°
2026-04-28 21:25 11.72316 74.45077 36849 ft 529 kts 128°
2026-04-28 21:25 11.67626 74.50861 36850 ft 529 kts 128°
2026-04-28 21:26 11.62931 74.56647 36850 ft 529 kts 128°
2026-04-28 21:26 11.58118 74.62575 36852 ft 529 kts 128°
2026-04-28 21:27 11.53421 74.68369 36851 ft 529 kts 128°
2026-04-28 21:27 11.49435 74.73274 36852 ft 529 kts 128°
2026-04-28 21:28 11.44599 74.79218 36807 ft 529 kts 128°
2026-04-28 21:28 11.39926 74.84956 36812 ft 519 kts 127°
2026-04-28 21:29 11.35302 74.90638 36804 ft 518 kts 127°
2026-04-28 21:29 11.30595 74.96406 36804 ft 526 kts 128°
2026-04-28 21:30 11.25931 75.02118 36820 ft 525 kts 127°
2026-04-28 21:30 11.21371 75.07708 36822 ft 499 kts 129°
2026-04-28 21:31 11.16906 75.13168 36821 ft 492 kts 128°
2026-04-28 21:31 11.12535 75.18519 36822 ft 492 kts 128°
2026-04-28 21:32 11.08119 75.23940 36823 ft 494 kts 128°
2026-04-28 21:32 11.03731 75.29316 36819 ft 489 kts 129°
2026-04-28 21:33 10.99407 75.34604 36819 ft 489 kts 129°
2026-04-28 21:33 10.95057 75.39922 36820 ft 489 kts 129°
2026-04-28 21:34 10.90675 75.45276 36820 ft 489 kts 129°
2026-04-28 21:34 10.86265 75.50660 36816 ft 489 kts 129°
2026-04-28 21:35 10.81848 75.56050 36816 ft 489 kts 129°
2026-04-28 21:35 10.77636 75.61189 36817 ft 489 kts 129°
2026-04-28 21:36 10.73047 75.66784 36817 ft 489 kts 129°
2026-04-28 21:36 10.68714 75.72065 36811 ft 489 kts 129°
2026-04-28 21:37 10.64293 75.77450 36810 ft 489 kts 129°
2026-04-28 21:37 10.59956 75.82730 36811 ft 489 kts 129°
2026-04-28 21:38 10.55617 75.88009 36812 ft 489 kts 129°
2026-04-28 21:38 10.51196 75.93387 36807 ft 489 kts 129°
2026-04-28 21:39 10.47360 75.98050 36802 ft 489 kts 129°
2026-04-28 21:39 10.42848 76.03533 36802 ft 489 kts 129°
2026-04-28 21:40 10.38477 76.08842 36805 ft 490 kts 129°
2026-04-28 21:40 10.33932 76.14367 36799 ft 489 kts 129°
2026-04-28 21:41 10.29567 76.19667 36795 ft 489 kts 129°
2026-04-28 21:41 10.25197 76.24965 36794 ft 489 kts 129°
2026-04-28 21:42 10.20822 76.30266 36796 ft 490 kts 129°
2026-04-28 21:42 10.16449 76.35560 36792 ft 489 kts 129°
2026-04-28 21:43 10.11981 76.40956 36792 ft 489 kts 129°
2026-04-28 21:43 10.07536 76.46294 36792 ft 489 kts 129°
2026-04-28 21:44 10.03144 76.51571 36792 ft 489 kts 129°
2026-04-28 21:44 9.98753 76.56847 36793 ft 489 kts 129°
2026-04-28 21:45 9.94363 76.62118 36794 ft 488 kts 129°
2026-04-28 21:45 9.90698 76.66527 36795 ft 488 kts 129°
2026-04-28 21:46 9.86318 76.71797 36797 ft 488 kts 129°
2026-04-28 21:46 9.81808 76.77215 36798 ft 488 kts 130°
2026-04-28 21:47 9.77430 76.82469 36799 ft 488 kts 130°
2026-04-28 21:47 9.73047 76.87726 36797 ft 488 kts 129°
2026-04-28 21:48 9.68635 76.93016 36797 ft 489 kts 129°
2026-04-28 21:48 9.64203 76.98326 36788 ft 490 kts 129°
2026-04-28 21:49 9.59803 77.03597 36791 ft 490 kts 129°
2026-04-28 21:49 9.55400 77.08869 36791 ft 490 kts 129°
2026-04-28 21:50 9.50971 77.14171 36787 ft 490 kts 129°
2026-04-28 21:50 9.46537 77.19476 36787 ft 490 kts 129°
2026-04-28 21:51 9.42103 77.24777 36787 ft 490 kts 129°
2026-04-28 21:51 9.37571 77.30201 36787 ft 490 kts 129°
2026-04-28 21:52 9.33691 77.34840 36787 ft 491 kts 129°
2026-04-28 21:52 9.29305 77.40076 36787 ft 490 kts 130°
2026-04-28 21:53 9.24840 77.45404 36787 ft 489 kts 130°
2026-04-28 21:53 9.20436 77.50656 36787 ft 490 kts 130°
2026-04-28 21:54 9.15998 77.55949 36787 ft 490 kts 130°
2026-04-28 21:54 9.11581 77.61207 36787 ft 490 kts 130°
2026-04-28 21:55 9.07166 77.66462 36787 ft 489 kts 130°
2026-04-28 21:55 9.02749 77.71718 36787 ft 489 kts 130°
2026-04-28 21:56 8.98249 77.77071 36787 ft 490 kts 130°
2026-04-28 21:56 8.93841 77.82322 36787 ft 490 kts 130°
2026-04-28 21:57 8.89425 77.87583 36787 ft 490 kts 130°
2026-04-28 21:57 8.85087 77.92745 36787 ft 490 kts 130°
2026-04-28 21:58 8.80527 77.98166 36787 ft 489 kts 130°
2026-04-28 21:58 8.76186 78.03323 36788 ft 490 kts 130°
2026-04-28 21:59 8.71714 78.08632 36785 ft 497 kts 129°
2026-04-28 22:00 8.64989 78.16621 36787 ft 494 kts 129°
2026-04-28 22:00 8.60471 78.21980 36783 ft 490 kts 129°
2026-04-28 22:01 8.56021 78.27258 36787 ft 496 kts 129°
2026-04-28 22:01 8.51509 78.32607 36786 ft 497 kts 129°
2026-04-28 22:02 8.47007 78.37951 36787 ft 501 kts 129°
2026-04-28 22:02 8.42439 78.43366 36788 ft 502 kts 129°
2026-04-28 22:03 8.37933 78.48699 36787 ft 498 kts 129°
2026-04-28 22:03 8.33410 78.54051 36787 ft 496 kts 129°
2026-04-28 22:04 8.28955 78.59319 36788 ft 493 kts 129°
2026-04-28 22:04 8.25073 78.63808 36784 ft 496 kts 130°
2026-04-28 22:05 8.20392 78.69007 36787 ft 501 kts 130°
2026-04-28 22:05 8.15691 78.74267 36787 ft 498 kts 130°
2026-04-28 22:06 8.11051 78.79474 36787 ft 500 kts 130°
2026-04-28 22:06 8.06426 78.84667 36786 ft 503 kts 130°
2026-04-28 22:07 8.01694 78.89992 36787 ft 507 kts 130°
2026-04-28 22:07 7.96945 78.95330 36787 ft 506 kts 130°
2026-04-28 22:08 7.92253 79.00599 36793 ft 504 kts 130°
2026-04-28 22:08 7.87522 79.05916 36796 ft 506 kts 130°
2026-04-28 22:09 7.82814 79.11197 36796 ft 507 kts 130°
2026-04-28 22:09 7.78129 79.16449 36796 ft 507 kts 130°
2026-04-28 22:10 7.73265 79.21899 36796 ft 506 kts 130°
2026-04-28 22:10 7.68573 79.27192 36795 ft 507 kts 130°
2026-04-28 22:11 7.63870 79.32554 36796 ft 507 kts 130°
2026-04-28 22:11 7.59092 79.37994 36796 ft 507 kts 130°
2026-04-28 22:12 7.54417 79.43314 36796 ft 507 kts 130°
2026-04-28 22:12 7.49639 79.48749 36794 ft 507 kts 130°
2026-04-28 22:13 7.45000 79.54033 36795 ft 508 kts 130°
2026-04-28 22:13 7.40319 79.59360 36795 ft 507 kts 130°
2026-04-28 22:14 7.35570 79.64765 36793 ft 507 kts 130°
2026-04-28 22:14 7.31646 79.69227 36793 ft 508 kts 130°
2026-04-28 22:15 7.26194 79.75419 36790 ft 508 kts 130°
2026-04-28 22:15 7.22268 79.79877 36791 ft 508 kts 130°
2026-04-28 22:16 7.17420 79.85626 36792 ft 506 kts 123°
2026-04-28 22:16 7.14145 79.92464 36792 ft 504 kts 104°
2026-04-28 22:17 7.12689 79.99414 36795 ft 502 kts 99°
2026-04-28 22:17 7.11464 80.05369 36794 ft 501 kts 101°
2026-04-28 22:18 7.09725 80.12686 36792 ft 501 kts 102°
2026-04-28 22:18 7.08000 80.19619 36797 ft 502 kts 102°
2026-04-28 22:19 7.06303 80.26480 36799 ft 502 kts 102°
2026-04-28 22:19 7.04783 80.32612 36797 ft 501 kts 102°
2026-04-28 22:20 7.03094 80.39418 36797 ft 501 kts 102°
2026-04-28 22:20 7.01419 80.46158 36801 ft 496 kts 103°
2026-04-28 22:21 6.99736 80.52923 36799 ft 496 kts 103°
2026-04-28 22:21 6.98051 80.59696 36800 ft 502 kts 102°
2026-04-28 22:22 6.96347 80.66540 36799 ft 501 kts 103°
2026-04-28 22:22 6.94640 80.73413 36799 ft 496 kts 103°
2026-04-28 22:23 6.92957 80.80159 36799 ft 499 kts 102°
2026-04-28 22:23 6.91247 80.87004 36799 ft 503 kts 102°
2026-04-28 22:24 6.89515 80.93937 36797 ft 504 kts 102°
2026-04-28 22:24 6.87805 81.00778 36797 ft 503 kts 102°
2026-04-28 22:25 6.86076 81.07664 36797 ft 503 kts 103°
2026-04-28 22:25 6.84366 81.14473 36795 ft 500 kts 103°
2026-04-28 22:26 6.82660 81.21258 36796 ft 499 kts 103°
2026-04-28 22:26 6.80921 81.28177 36795 ft 499 kts 103°
2026-04-28 22:27 6.79416 81.34163 36794 ft 499 kts 103°
2026-04-28 22:27 6.77707 81.40988 36794 ft 499 kts 103°
2026-04-28 22:28 6.75981 81.47860 36794 ft 499 kts 103°
2026-04-28 22:28 6.74276 81.54634 36794 ft 500 kts 103°
2026-04-28 22:29 6.72529 81.61573 36793 ft 499 kts 103°
2026-04-28 22:29 6.70840 81.68277 36793 ft 499 kts 103°
2026-04-28 22:30 6.69136 81.75055 36793 ft 500 kts 103°
2026-04-28 22:30 6.67539 81.81382 36796 ft 500 kts 103°
2026-04-28 22:31 6.65686 81.88714 36798 ft 500 kts 103°
2026-04-28 22:31 6.63969 81.95504 36798 ft 501 kts 103°
2026-04-28 22:32 6.62221 82.02425 36798 ft 501 kts 103°
2026-04-28 22:32 6.60512 82.09190 36798 ft 501 kts 103°
2026-04-28 22:33 6.58781 82.16039 36798 ft 501 kts 103°
2026-04-28 22:33 6.57049 82.22890 36798 ft 501 kts 103°
2026-04-28 22:34 6.55330 82.29685 36799 ft 501 kts 103°
2026-04-28 22:34 6.53580 82.36620 36799 ft 501 kts 102°
2026-04-28 22:35 6.51865 82.43424 36798 ft 502 kts 102°
2026-04-28 22:35 6.50401 82.49215 36797 ft 502 kts 103°
2026-04-28 22:36 6.48670 82.56056 36800 ft 501 kts 103°
2026-04-28 22:36 6.46949 82.62851 36800 ft 501 kts 103°
2026-04-28 22:37 6.45228 82.69643 36800 ft 501 kts 103°
2026-04-28 22:37 6.43493 82.76485 36800 ft 501 kts 103°
2026-04-28 22:38 6.41780 82.83235 36800 ft 501 kts 103°
2026-04-28 22:38 6.40019 82.90171 36799 ft 502 kts 103°
2026-04-28 22:39 6.38293 82.96969 36798 ft 502 kts 103°
2026-04-28 22:39 6.36541 83.03859 36800 ft 501 kts 103°
2026-04-28 22:40 6.34814 83.10649 36800 ft 501 kts 103°
2026-04-28 22:40 6.33096 83.17402 36799 ft 502 kts 103°
2026-04-28 22:41 6.31332 83.24327 36801 ft 502 kts 103°
2026-04-28 22:41 6.29588 83.31175 36801 ft 501 kts 103°
2026-04-28 22:42 6.27867 83.37924 36799 ft 502 kts 103°
2026-04-28 22:42 6.26084 83.44914 36800 ft 502 kts 103°
2026-04-28 22:43 6.24349 83.51714 36801 ft 503 kts 103°
2026-04-28 22:43 6.22657 83.58340 36801 ft 502 kts 103°
2026-04-28 22:44 6.21050 83.64631 36800 ft 502 kts 103°
2026-04-28 22:44 6.19293 83.71519 36799 ft 502 kts 103°
2026-04-28 22:45 6.17543 83.78369 36799 ft 502 kts 103°
2026-04-28 22:45 6.15719 83.85488 36797 ft 502 kts 103°
2026-04-28 22:46 6.13963 83.92338 36800 ft 502 kts 103°
2026-04-28 22:46 6.12196 83.99230 36801 ft 503 kts 103°
2026-04-28 22:47 6.10450 84.06034 36800 ft 503 kts 103°
2026-04-28 22:47 6.08947 84.11877 36799 ft 503 kts 103°
2026-04-28 22:48 6.07194 84.18691 36798 ft 503 kts 103°
2026-04-28 22:48 6.05490 84.25312 36798 ft 502 kts 103°
2026-04-28 22:49 6.03678 84.32350 36796 ft 502 kts 103°
2026-04-28 22:49 6.01936 84.39142 36797 ft 502 kts 103°
2026-04-28 22:50 6.00166 84.46036 36798 ft 503 kts 103°
2026-04-28 22:50 5.98413 84.52848 36796 ft 503 kts 103°
2026-04-28 22:51 5.96601 84.59886 36798 ft 503 kts 103°
2026-04-28 22:51 5.94847 84.66689 36797 ft 503 kts 103°
2026-04-28 22:52 5.93093 84.73494 36797 ft 503 kts 103°
2026-04-28 22:52 5.91336 84.80301 36796 ft 504 kts 103°
2026-04-28 22:53 5.89565 84.87160 36797 ft 504 kts 103°
2026-04-28 22:53 5.87806 84.93972 36797 ft 503 kts 103°
2026-04-28 22:54 5.86034 85.00825 36796 ft 503 kts 103°
2026-04-28 22:54 5.84273 85.07636 36796 ft 504 kts 103°
2026-04-28 22:55 5.82500 85.14491 36796 ft 504 kts 103°
2026-04-28 22:55 5.80737 85.21300 36796 ft 504 kts 103°
2026-04-28 22:56 5.78959 85.28166 36796 ft 504 kts 103°
2026-04-28 22:56 5.77188 85.35003 36796 ft 500 kts 103°
2026-04-28 22:57 5.75677 85.40830 36795 ft 496 kts 103°
2026-04-28 22:57 5.73877 85.47764 36796 ft 499 kts 103°
2026-04-28 22:58 5.72105 85.54595 36797 ft 504 kts 103°
2026-04-28 22:58 5.70309 85.61517 36795 ft 499 kts 103°
2026-04-28 22:59 5.68560 85.68242 36795 ft 497 kts 103°
2026-04-28 22:59 5.66790 85.75054 36797 ft 503 kts 103°
2026-04-28 23:00 5.65021 85.81860 36796 ft 502 kts 103°
2026-04-28 23:00 5.63250 85.88664 36793 ft 499 kts 103°
2026-04-28 23:01 5.61502 85.95405 36795 ft 495 kts 104°
2026-04-28 23:01 5.59753 86.02104 36789 ft 491 kts 105°
2026-04-28 23:02 5.58010 86.08792 36788 ft 492 kts 105°
2026-04-28 23:02 5.56260 86.15493 36789 ft 493 kts 105°
2026-04-28 23:03 5.54524 86.22142 36789 ft 491 kts 104°
2026-04-28 23:03 5.52771 86.28878 36787 ft 492 kts 105°
2026-04-28 23:04 5.51031 86.35536 36787 ft 494 kts 105°
2026-04-28 23:04 5.48424 86.45508 36789 ft 491 kts 104°
2026-04-28 23:05 5.47055 86.50753 36788 ft 491 kts 105°
2026-04-28 23:05 5.45223 86.57757 36788 ft 493 kts 105°
2026-04-28 23:06 5.43478 86.64427 36787 ft 494 kts 105°
2026-04-28 23:06 5.41733 86.71091 36787 ft 493 kts 105°
2026-04-28 23:07 5.39989 86.77753 36787 ft 493 kts 105°
2026-04-28 23:07 5.38243 86.84414 36787 ft 493 kts 105°
2026-04-28 23:08 5.36483 86.91129 36787 ft 493 kts 105°
2026-04-28 23:08 5.34725 86.97832 36787 ft 493 kts 105°
2026-04-28 23:09 5.32979 87.04489 36787 ft 493 kts 105°
2026-04-28 23:09 5.31112 87.11598 36787 ft 493 kts 105°
2026-04-28 23:10 5.29504 87.17724 36787 ft 493 kts 105°
2026-04-28 23:10 5.27729 87.24477 36787 ft 493 kts 105°
2026-04-28 23:11 5.26013 87.31006 36787 ft 493 kts 105°
2026-04-28 23:11 5.24193 87.37927 36787 ft 493 kts 105°
2026-04-28 23:12 5.22440 87.44589 36787 ft 493 kts 105°
2026-04-28 23:12 5.20571 87.51693 36787 ft 493 kts 105°
2026-04-28 23:13 5.18804 87.58403 36787 ft 493 kts 105°
2026-04-28 23:13 5.17394 87.63753 36787 ft 493 kts 105°
2026-04-28 23:14 5.15569 87.70689 36787 ft 493 kts 105°
2026-04-28 23:14 5.13806 87.77383 36787 ft 493 kts 105°
2026-04-28 23:15 5.12026 87.84125 36787 ft 493 kts 105°
2026-04-28 23:15 5.10267 87.90784 36787 ft 493 kts 105°
2026-04-28 23:16 5.08497 87.97484 36787 ft 493 kts 105°
2026-04-28 23:16 5.06701 88.04175 36787 ft 493 kts 106°
2026-04-28 23:17 5.04838 88.10843 36787 ft 493 kts 106°
2026-04-28 23:17 5.03605 88.15273 36787 ft 493 kts 106°
2026-04-28 23:18 5.01103 88.24280 36798 ft 493 kts 106°
2026-04-28 23:18 5.00161 88.27673 36934 ft 489 kts 106°
2026-04-28 23:18 4.99248 88.30960 36952 ft 490 kts 106°
2026-04-28 23:19 4.97386 88.37691 36955 ft 491 kts 106°
2026-04-28 23:19 4.95560 88.44284 36955 ft 490 kts 106°
2026-04-28 23:20 4.94043 88.49756 36955 ft 490 kts 106°
2026-04-28 23:20 4.91897 88.57489 36956 ft 490 kts 106°
2026-04-28 23:21 4.90054 88.64127 36956 ft 490 kts 106°
2026-04-28 23:21 4.88399 88.70086 36956 ft 490 kts 106°
2026-04-28 23:22 4.86471 88.77023 36956 ft 490 kts 106°
2026-04-28 23:22 4.84636 88.83622 36956 ft 490 kts 106°
2026-04-28 23:23 4.82806 88.90204 36956 ft 490 kts 106°
2026-04-28 23:23 4.80962 88.96831 36956 ft 490 kts 106°
2026-04-28 23:24 4.79119 89.03451 36956 ft 490 kts 106°
2026-04-28 23:24 4.77283 89.10044 36957 ft 490 kts 106°
2026-04-28 23:25 4.75438 89.16669 36957 ft 490 kts 106°
2026-04-28 23:25 4.73641 89.23116 36957 ft 490 kts 106°
2026-04-28 23:26 4.72052 89.28815 36957 ft 490 kts 106°
2026-04-28 23:26 4.70215 89.35402 36957 ft 490 kts 106°
2026-04-28 23:27 4.68366 89.42029 36957 ft 490 kts 106°
2026-04-28 23:27 4.66529 89.48614 36957 ft 490 kts 106°
2026-04-28 23:28 4.64689 89.55199 36986 ft 489 kts 105°
2026-04-28 23:28 4.62871 89.61709 36994 ft 488 kts 105°
2026-04-28 23:29 4.61028 89.68306 36994 ft 488 kts 105°
2026-04-28 23:29 4.59196 89.74860 36994 ft 488 kts 105°
2026-04-28 23:30 4.57363 89.81415 36994 ft 488 kts 105°
2026-04-28 23:30 4.55530 89.87970 36994 ft 488 kts 105°
2026-04-28 23:31 4.53649 89.94692 36994 ft 488 kts 105°
2026-04-28 23:31 4.51802 90.01289 36994 ft 488 kts 105°
2026-04-28 23:32 4.49927 90.07983 36994 ft 488 kts 105°
2026-04-28 23:32 4.48099 90.14524 36994 ft 488 kts 105°
2026-04-28 23:33 4.46224 90.21214 36994 ft 488 kts 105°
2026-04-28 23:33 4.44389 90.27755 36994 ft 488 kts 105°
2026-04-28 23:34 4.42849 90.33241 36994 ft 488 kts 105°
2026-04-28 23:34 4.40871 90.40291 36994 ft 488 kts 105°
2026-04-28 23:35 4.39189 90.46838 36994 ft 488 kts 103°
2026-04-28 23:35 4.37528 90.53629 36994 ft 488 kts 104°
2026-04-28 23:36 4.35877 90.60277 36994 ft 488 kts 104°
2026-04-28 23:36 4.34211 90.66944 36994 ft 488 kts 104°
2026-04-28 23:37 4.32577 90.73476 36994 ft 488 kts 104°
2026-04-28 23:37 4.30931 90.80073 36994 ft 488 kts 104°
2026-04-28 23:38 4.29235 90.86853 36994 ft 488 kts 104°
2026-04-28 23:38 4.27583 90.93448 36994 ft 488 kts 104°
2026-04-28 23:39 4.25918 91.00093 36994 ft 488 kts 104°
2026-04-28 23:39 4.24308 91.06516 36994 ft 488 kts 104°
2026-04-28 23:40 4.22608 91.13291 36994 ft 488 kts 104°
2026-04-28 23:40 4.20964 91.19843 36994 ft 488 kts 104°
2026-04-28 23:41 4.19285 91.26533 36994 ft 488 kts 104°
2026-04-28 23:41 4.17630 91.33127 36994 ft 488 kts 104°
2026-04-28 23:42 4.16233 91.38689 36994 ft 488 kts 104°
2026-04-28 23:42 4.14575 91.45286 36994 ft 488 kts 104°
2026-04-28 23:43 4.12906 91.51928 36994 ft 488 kts 104°
2026-04-28 23:43 4.11247 91.58524 36994 ft 488 kts 104°
2026-04-28 23:44 4.09575 91.65171 36994 ft 488 kts 104°
2026-04-28 23:44 4.07920 91.71758 36994 ft 488 kts 104°
2026-04-28 23:45 4.06249 91.78400 36994 ft 488 kts 104°
2026-04-28 23:45 4.04586 91.84999 36994 ft 488 kts 104°
2026-04-28 23:46 4.02857 91.91862 36994 ft 488 kts 104°
2026-04-28 23:46 4.01127 91.98720 36994 ft 488 kts 104°
2026-04-28 23:47 3.99249 92.05203 36994 ft 488 kts 108°
2026-04-28 23:47 3.96978 92.11681 36994 ft 488 kts 109°
2026-04-28 23:48 3.94811 92.17845 36994 ft 488 kts 109°
2026-04-28 23:48 3.92513 92.24535 36994 ft 488 kts 108°
2026-04-28 23:49 3.90334 92.30930 36994 ft 488 kts 108°
2026-04-28 23:49 3.88106 92.37506 36994 ft 488 kts 108°
2026-04-28 23:50 3.86293 92.42862 36994 ft 488 kts 108°
2026-04-28 23:50 3.84063 92.49444 36994 ft 488 kts 108°
2026-04-28 23:51 3.81883 92.55876 36994 ft 488 kts 108°
2026-04-28 23:51 3.79684 92.62364 36994 ft 488 kts 108°
2026-04-28 23:52 3.77498 92.68809 36994 ft 488 kts 108°
2026-04-28 23:52 3.75268 92.75385 36994 ft 488 kts 108°
2026-04-28 23:53 3.73097 92.81783 36994 ft 488 kts 108°
2026-04-28 23:53 3.70954 92.88096 36994 ft 488 kts 108°
2026-04-28 23:54 3.68709 92.94710 36994 ft 488 kts 108°
2026-04-28 23:54 3.66524 93.01146 36994 ft 488 kts 108°
2026-04-28 23:55 3.64307 93.07675 36994 ft 488 kts 108°
2026-04-28 23:55 3.62114 93.14129 36994 ft 488 kts 108°
2026-04-28 23:56 3.59880 93.20703 36994 ft 488 kts 108°
2026-04-28 23:56 3.57688 93.27151 36994 ft 488 kts 108°
2026-04-28 23:57 3.55499 93.33590 36994 ft 488 kts 108°
2026-04-28 23:57 3.53295 93.40071 36994 ft 488 kts 108°
2026-04-28 23:58 3.51052 93.46664 36994 ft 488 kts 108°
2026-04-28 23:58 3.49170 93.52196 36994 ft 488 kts 108°
2026-04-28 23:59 3.47062 93.58391 36994 ft 489 kts 108°
2026-04-28 23:59 3.44782 93.65088 36994 ft 489 kts 108°
2026-04-29 00:00 3.42598 93.71503 36994 ft 489 kts 108°
2026-04-29 00:00 3.40395 93.77971 36994 ft 489 kts 108°
2026-04-29 00:01 3.38197 93.84423 36994 ft 489 kts 108°
2026-04-29 00:01 3.36000 93.90873 36994 ft 489 kts 108°
2026-04-29 00:02 3.33808 93.97303 36994 ft 489 kts 108°
2026-04-29 00:02 3.31596 94.03791 36994 ft 489 kts 108°
2026-04-29 00:03 3.29416 94.10186 36994 ft 489 kts 108°
2026-04-29 00:03 3.27186 94.16723 36994 ft 489 kts 108°
2026-04-29 00:04 3.24988 94.23168 36994 ft 489 kts 108°
2026-04-29 00:04 3.22758 94.29702 36994 ft 489 kts 108°
2026-04-29 00:05 3.20562 94.36136 36994 ft 489 kts 108°
2026-04-29 00:05 3.18378 94.42535 36994 ft 489 kts 108°
2026-04-29 00:06 3.16164 94.49018 36993 ft 489 kts 108°
2026-04-29 00:06 3.13960 94.55471 36989 ft 489 kts 109°
2026-04-29 00:07 3.11758 94.61918 36993 ft 489 kts 108°
2026-04-29 00:07 3.09539 94.68412 36994 ft 489 kts 108°
2026-04-29 00:08 3.07336 94.74858 36914 ft 489 kts 109°
2026-04-29 00:08 3.05192 94.81129 36871 ft 488 kts 108°
2026-04-29 00:09 3.02919 94.87780 36871 ft 489 kts 108°
2026-04-29 00:09 3.00699 94.94270 36868 ft 490 kts 109°
2026-04-29 00:10 2.98736 95.00008 36866 ft 489 kts 109°
2026-04-29 00:10 2.96472 95.06626 36865 ft 489 kts 109°
2026-04-29 00:11 2.94293 95.12996 36865 ft 489 kts 109°
2026-04-29 00:12 2.90957 95.22742 36865 ft 489 kts 109°
2026-04-29 00:12 2.88737 95.29226 36865 ft 489 kts 109°
2026-04-29 00:13 2.86530 95.35672 36865 ft 489 kts 109°
2026-04-29 00:13 2.84312 95.42146 36866 ft 489 kts 109°
2026-04-29 00:14 2.82100 95.48603 36866 ft 489 kts 109°
2026-04-29 00:14 2.79934 95.54924 36868 ft 489 kts 109°
2026-04-29 00:15 2.77684 95.61490 36869 ft 489 kts 109°
2026-04-29 00:15 2.75476 95.67931 36870 ft 490 kts 109°
2026-04-29 00:16 2.73258 95.74401 36870 ft 490 kts 109°
2026-04-29 00:16 2.71004 95.80974 36869 ft 490 kts 109°
2026-04-29 00:17 2.68793 95.87421 36870 ft 490 kts 109°
2026-04-29 00:17 2.66620 95.93758 36870 ft 490 kts 109°
2026-04-29 00:18 2.64340 96.00401 36869 ft 490 kts 109°
2026-04-29 00:18 2.62113 96.06891 36870 ft 490 kts 109°
2026-04-29 00:19 2.60246 96.12332 36870 ft 490 kts 109°
2026-04-29 00:19 2.58033 96.18776 36870 ft 490 kts 109°
2026-04-29 00:20 2.55789 96.25313 36869 ft 490 kts 109°
2026-04-29 00:20 2.53562 96.31797 36869 ft 490 kts 109°
2026-04-29 00:21 2.51305 96.38370 36869 ft 490 kts 109°
2026-04-29 00:21 2.49094 96.44805 36869 ft 490 kts 109°
2026-04-29 00:22 2.46863 96.51298 36869 ft 490 kts 109°
2026-04-29 00:22 2.44635 96.57781 36868 ft 490 kts 109°
2026-04-29 00:23 2.42443 96.64160 36868 ft 490 kts 109°
2026-04-29 00:23 2.40116 96.70927 36868 ft 490 kts 109°
2026-04-29 00:24 2.37902 96.77367 36868 ft 490 kts 109°
2026-04-29 00:24 2.35656 96.83897 36868 ft 490 kts 109°
2026-04-29 00:25 2.33451 96.90309 36868 ft 489 kts 109°
2026-04-29 00:25 2.31223 96.96787 36868 ft 489 kts 109°
2026-04-29 00:26 2.28999 97.03250 36881 ft 490 kts 109°
2026-04-29 00:26 2.27879 97.06505 37079 ft 493 kts 109°
2026-04-29 00:26 2.27138 97.08659 37379 ft 491 kts 109°
2026-04-29 00:26 2.26012 97.11930 37894 ft 488 kts 109°
2026-04-29 00:27 2.24926 97.15086 38365 ft 485 kts 109°
2026-04-29 00:27 2.23826 97.18280 38743 ft 484 kts 109°
2026-04-29 00:27 2.22711 97.21521 38880 ft 486 kts 109°
2026-04-29 00:28 2.20508 97.27920 38865 ft 485 kts 109°
2026-04-29 00:28 2.19081 97.32063 38858 ft 484 kts 109°